User: anonymous   Login
Location: Unspecified
(0.0000°N, 0.0000°E)
Time: 10:03:58
(UTC+00:00)
Language:

STARLINK-2519 - Orbit

View from above orbital plane
View from above orbital plane
View from above satellite
View from above satellite

Ground track
Ground track

The orbit is defined by the following mean orbital elements,

1 48305U          26145.27978582 +.00000000 +00000-0 +23917-4 0 00005
2 48305  53.1614 103.2646 0001317  89.1917 270.9236 15.31703679    02
Epoch (UTC): 25 May 2026 06:42:53
Eccentricity: 0.0001317
inclination: 53.1614°
perigee height: 470 km
apogee height: 472 km
right ascension of ascending node: 103.2646°
argument of perigee: 89.1917°
revolutions per day: 15.31703679
mean anomaly at epoch: 270.9236°

The dashed part of the orbit path shows where the satellite is in the earth's shadow,  

DLR